Regional Weather Roundup
Issued by NWS

Home | Current Version | Previous Version | Graphics & Text | Print | Product List | Glossary On
Versions: 1 2 3 4 5 6 7 8 9 10 11 12 13 14 15 16 17 18 19 20 21 22 23 24 25 26 27 28 29 30 31 32 33 34 35 36 37 38 39 40 41 42 43 44 45 46 47 48 49 50
980
ASUS43 KLMK 230902
RWRKY
KENTUCKY REGIONAL WEATHER ROUNDUP
NATIONAL WEATHER SERVICE LOUISVILLE KY
500 AM EDT SUN JUL 23 2017

NOTE "FAIR" INDICATES FEW OR NO CLOUDS BELOW 12,000 FEET
WITH NO SIGNIFICANT WEATHER AND/OR OBSTRUCTIONS TO VISIBILITY.

KYZ001>023-026-027-061>063-070>075-231000-
WESTERN AND SOUTH CENTRAL KENTUCKY

CITY           SKY/WX    TMP DP  RH WIND       PRES   REMARKS
PADUCAH        CLEAR     80  74  81 SW6       29.82S
HENDERSON      NOT AVBL
OWENSBORO      CLOUDY    79  72  79 NE14      29.85R
HOPKINSVILLE   CLEAR     78  74  89 SW9       29.85S
BOWLING GREEN  CLOUDY    80  75  84 SW6       29.86R
GLASGOW        NOT AVBL
$$

KYZ024-025-028>034-038-045-046-053-231000-
NORTH CENTRAL KENTUCKY

CITY           SKY/WX    TMP DP  RH WIND       PRES   REMARKS
LOUISVILLE/SDF LGT RAIN  72  70  93 SW6       29.91R
LOUISVILLE/LOU LGT RAIN  71  70  96 W5        29.91R
FORT KNOX      DRIZZLE   71  67  89 NW12      29.90F
$$

KYZ035>037-039>044-047>052-055>060-089>105-231000-
NORTHEAST KENTUCKY

CITY           SKY/WX    TMP DP  RH WIND       PRES   REMARKS
LEXINGTON      LGT RAIN  74  71  91 W10       29.91S
COVINGTON      TSTM      73  73 100 S17       29.82F
FRANKFORT      LGT RAIN  74  71  91 W5        29.89S
$$

KYZ054-064>069-076>088-106>120-231000-
SOUTHEAST KENTUCKY

CITY           SKY/WX    TMP DP  RH WIND       PRES   REMARKS
JACKSON        MOCLDY    68  67  96 S3        29.92R
LONDON         CLEAR     77  72  84 S5        29.92R
SOMERSET       CLOUDY    75  73  94 CALM      29.91R
MIDDLESBORO    CLEAR     73  73 100 CALM      29.93R
MONTICELLO     SUNNY     73  72  96 W6        29.92R
$$





USA.gov is the U.S. government's official web portal to all federal, state and local government web resources and services.